Weather Service Report


890 
ASUS44 KOUN 220800
RWROK 

WEATHER ROUNDUP FOR OKLAHOMA
NATIONAL WEATHER SERVICE NORMAN OK
200 AM CST MON DEC 22 2014

NOTE: "FAIR" INDICATES FEW OR NO CLOUDS BELOW 12,000 FEET WITH NO
      SIGNIFICANT WEATHER AND/OR OBSTRUCTIONS TO VISIBILITY.

OKZ001>007-009>012-014-015-017-220900-
NORTHWEST OKLAHOMA AND THE PANHANDLE
  
CITY           SKY/WX    TMP DP  RH WIND       PRES   REMARKS
GAGE           CLOUDY    44  42  93 SW7       29.54S                  
$$

OKZ016-021>023-033>039-044-045-220900-
SOUTHWEST OKLAHOMA
  
CITY           SKY/WX    TMP DP  RH WIND       PRES   REMARKS
LAWTON/REGL    MOCLDY    45  43  93 SE9       29.55F FOG              
LAWTON/FT SILL CLOUDY    46  46 100 SE10      29.54F                  
FREDERICK      CLEAR     42  40  92 E7        29.50F FOG              
CLINTON        PTCLDY    43  41  93 SE8       29.54F FOG              
HOBART         PTCLDY    44  42  93 SE7       29.53F                  
ALTUS AFB      CLEAR     41  41 100 E7        29.52F                  
$$

OKZ018>020-024>031-220900-
CENTRAL OKLAHOMA
  
CITY           SKY/WX    TMP DP  RH WIND       PRES   REMARKS
OKLAHOMA CITY  CLOUDY    49  45  86 S15       29.57F                  
OKC/WILEY POST CLOUDY    49  46  90 S14       29.57F                  
STILLWATER     CLOUDY    48  45  89 SE10      29.60F                  
GUTHRIE        CLOUDY    49  45  86 SE12      29.58F                  
$$

OKZ008-013-054>072-220900-
NORTHEAST OKLAHOMA
  
CITY           SKY/WX    TMP DP  RH WIND       PRES   REMARKS
TULSA          CLOUDY    47  44  90 SE9       29.66F                  
TULSA/JONES    CLOUDY    47  44  90 S8        29.66F                  
PONCA CITY     CLOUDY    47  44  90 SE15      29.60F FOG              
BARTLESVILLE   CLOUDY    45  43  93 S12       29.67F                  
MUSKOGEE       CLOUDY    46  43  89 SE12      29.69F                  
$$

OKZ032-040>043-046>053-073>077-220900-
SOUTH CENTRAL/SOUTHEAST OKLAHOMA
  
CITY           SKY/WX    TMP DP  RH WIND       PRES   REMARKS
MCALESTER      CLOUDY    49  45  86 S10G20    29.67F                  
$$


Return to Home page


Western Regional Climate Center, wrcc@dri.edu